OneWeb SL0356

operational
NORAD ID: 49283 Int'l Des: 2021-090 Owner: ONEWEBN Country: UK Constellation: oneweb
LEOCIRCULARPOLARONEWEB_TYPE

Über OneWeb SL0356

Beschreibung wird geladen...

Live-Position

3D-Globus wird geladen...

Nächste Überflüge

Höhenverlauf

Altitude vs Time

uPlot chart will show altitude changes over time

Zweizeiliger Elementsatz

1 49283U 21090E 26035.27300109 .00000055 00000-0 10248-3 0 9994
2 49283 87.9217 300.9597 0002101 54.7625 305.3705 13.20770586212285
Epoch: 4. Feb. 2026 • Age: 9 hours

Aktueller Status

Höhe 1191.2 km
Geschwindigkeit 7.26 km/s
Subsatellitenpunkt 63.23°N, 69.26°W
Startdatum 14. Okt. 2021
Alter 4.3 years
Typ internet

Technische Details

Klassifizierung Payload
Masse 148.00 kg
Trockenmasse 140.00 kg
Gesamtmasse 148.00 kg
Länge 1.30 m
Durchmesser 1.00 m
Spannweite 5.00 m
Form Trapezoid+2 pan
Hersteller ONEWUS
Bus-Typ ARROW
Phasenstatus In Orbit
Besitzer/Staat ONEWEBN/UK

Große Konstellationen

Loading constellations...